Location: Palomar Mountain Lodge
(33.3110°N, 116.8495°W)
Time: 21:06:34
(UTC-07:00)

Cosmos 405 Rocket - Pass Details

Date: 19 May 2017
Orbit: 492 x 557 km, 81.3° (Epoch: 16 October)

Event Time Altitude Azimuth Distance (km) Brightness Sun altitude
Exits shadow 21:09:31 27° 91° (E) 967 3.6 -16.1°
Drops below altitude 10° 21:12:41 10° 33° (NNE) 1,708 5.4 -16.7°
Sets 21:15:01 0° 21° (NNE) 2,607 6.5 -17.0°
